Hourly Data Report for November 20, 2019

All times are specified in Local Standard Time (LST). Add 1 hour to adjust for Daylight Saving Time where and when it is observed.

KAMLOOPS A
BRITISH COLUMBIA
Current Station Operator: NAVCAN

50°42'09.000" N
120°26'55.000" W
345.30 m
1163781
71887
YKA

Download Data

Hourly Data (November 2019)
Hourly Data Report for November 20, 2019
TIME Temp Definition
°C
Dew Point Definition
°C
Rel Hum Definition
%
Wind Dir Definition
10's deg

Wind Spd Definition
km/h
Visibility Definition
km
Stn Press Definition
kPa
Hmdx Definition


Wind Chill Definition


Weather Definition


00:00 4.3 -4.3 53 31 15 32.2 98.29     LegendNANA
01:00 3.3 -3.4 61 28 21 32.2 98.34     Clear
02:00 2.5 -3.9 63 30 12 32.2 98.38     LegendNANA
03:00 0.5 -4.2 71 27 5 32.2 98.43     LegendNANA
04:00 0.4 -2.8 79 13 9 32.2 98.42     Clear
05:00 -0.4 -3.6 79 9 7 32.2 98.47   -3 LegendNANA
06:00 -0.9 -4.1 79 3 4 32.2 98.56   -2 LegendNANA
07:00 -1.3 -3.9 83 10 14 64.4 98.56   -6 Clear
08:00 -1.9 -4.2 84 7 9 64.4 98.58   -5 LegendNANA
09:00 0.2 -2.9 79 10 6 64.4 98.58     LegendNANA
10:00 1.8 -3.3 69 13 11 64.4 98.55     Mainly Clear
11:00 2.9 -3.3 64 11 8 64.4 98.51     LegendNANA
12:00 4.2 -3.8 56 12 5 64.4 98.48     LegendNANA
13:00 4.8 -4.1 52 13 9 64.4 98.44     Mostly Cloudy
14:00 5.5 -3.8 51 11 6 64.4 98.41     LegendNANA
15:00 5.2 -3.8 52 36 2 64.4 98.38     LegendNANA
16:00 3.2 -3.6 61 36 1 64.4 98.33     Mostly Cloudy
17:00 1.7 -4.0 66 2 5 64.4 98.32     LegendNANA
18:00 0.6 -3.9 72 8 9 64.4 98.30     LegendNANA
19:00 1.2 -3.2 73 8 14 64.4 98.29     Mainly Clear
20:00 -0.3 -3.7 78 10 14 64.4 98.28   -5 LegendNANA
21:00 -0.1 -3.3 79 10 13 64.4 98.30   -4 LegendNANA
22:00 -1.5 -3.9 84 10 11 64.4 98.28   -5 Clear
23:00 -1.6 -3.9 85 9 10 64.4 98.26   -5 LegendNANA

Notes on Data Quality.

Legend

  • E = Estimated
  • M = Missing
  • NA = Not Available
Date modified: